Year,Month,Day,Hour,Minute,Value (Times are PST for temperature in C)
2016,11,25,00,00,5.90
2016,11,25,00,01,5.90
2016,11,25,00,02,5.90
2016,11,25,00,03,5.90
2016,11,25,00,04,5.90
2016,11,25,00,05,5.90
2016,11,25,00,06,5.90
2016,11,25,00,07,5.90
2016,11,25,00,08,5.90
2016,11,25,00,09,5.90
2016,11,25,00,10,5.90
2016,11,25,00,11,5.90
2016,11,25,00,12,5.90
2016,11,25,00,13,5.90
2016,11,25,00,14,5.90
2016,11,25,00,15,5.90
2016,11,25,00,16,5.90
2016,11,25,00,17,5.90
2016,11,25,00,18,5.90
2016,11,25,00,19,5.90
2016,11,25,00,20,5.90
2016,11,25,00,21,5.90
2016,11,25,00,22,5.90
2016,11,25,00,23,5.80
2016,11,25,00,24,5.80
2016,11,25,00,25,5.80
2016,11,25,00,26,5.80
2016,11,25,00,27,5.80
2016,11,25,00,28,5.80
2016,11,25,00,29,5.80
2016,11,25,00,30,5.80
2016,11,25,00,31,5.80
2016,11,25,00,32,5.70
2016,11,25,00,33,5.70
2016,11,25,00,34,5.70
2016,11,25,00,35,5.70
2016,11,25,00,36,5.70
2016,11,25,00,37,5.70
2016,11,25,00,38,5.70
2016,11,25,00,39,5.70
2016,11,25,00,40,5.70
2016,11,25,00,41,5.70
2016,11,25,00,42,5.70
2016,11,25,00,43,5.60
2016,11,25,00,44,5.60
2016,11,25,00,45,5.60
2016,11,25,00,46,5.60
2016,11,25,00,47,5.60
2016,11,25,00,48,5.60
2016,11,25,00,49,5.60
2016,11,25,00,50,5.60
2016,11,25,00,51,5.60
2016,11,25,00,52,5.60
2016,11,25,00,53,5.60
2016,11,25,00,54,5.60
2016,11,25,00,55,5.50
2016,11,25,00,56,5.50
2016,11,25,00,57,5.50
2016,11,25,00,58,5.50
2016,11,25,00,59,5.40
2016,11,25,01,00,5.40
2016,11,25,01,01,5.40
2016,11,25,01,02,5.40
2016,11,25,01,03,5.40
2016,11,25,01,04,5.40
2016,11,25,01,05,5.30
2016,11,25,01,06,5.30
2016,11,25,01,07,5.30
2016,11,25,01,08,5.30
2016,11,25,01,09,5.20
2016,11,25,01,10,5.20
2016,11,25,01,11,5.20
2016,11,25,01,12,5.20
2016,11,25,01,13,5.10
2016,11,25,01,14,5.10
2016,11,25,01,15,5.10
2016,11,25,01,16,5.10
2016,11,25,01,17,5.00
2016,11,25,01,18,5.00
2016,11,25,01,19,5.00
2016,11,25,01,20,4.90
2016,11,25,01,21,4.90
2016,11,25,01,22,4.90
2016,11,25,01,23,4.90
2016,11,25,01,24,4.90
2016,11,25,01,25,4.80
2016,11,25,01,26,4.80
2016,11,25,01,27,4.80
2016,11,25,01,28,4.80
2016,11,25,01,29,4.80
2016,11,25,01,30,4.80
2016,11,25,01,31,4.80
2016,11,25,01,32,4.80
2016,11,25,01,33,4.80
2016,11,25,01,34,4.80
2016,11,25,01,35,4.80
2016,11,25,01,36,4.80
2016,11,25,01,37,4.80
2016,11,25,01,38,4.80
2016,11,25,01,39,4.80
2016,11,25,01,40,4.80
2016,11,25,01,41,4.70
2016,11,25,01,42,4.70
2016,11,25,01,43,4.70
2016,11,25,01,44,4.70
2016,11,25,01,45,4.70
2016,11,25,01,46,4.70
2016,11,25,01,47,4.70
2016,11,25,01,48,4.70
2016,11,25,01,49,4.70
2016,11,25,01,50,4.70
2016,11,25,01,51,4.70
2016,11,25,01,52,4.70
2016,11,25,01,53,4.70
2016,11,25,01,54,4.70
2016,11,25,01,55,4.70
2016,11,25,01,56,4.70
2016,11,25,01,57,4.70
2016,11,25,01,58,4.70
2016,11,25,01,59,4.70
2016,11,25,02,00,4.70
2016,11,25,02,01,4.70
2016,11,25,02,02,4.70
2016,11,25,02,03,4.80
2016,11,25,02,04,4.80
2016,11,25,02,05,4.80
2016,11,25,02,06,4.80
2016,11,25,02,07,4.80
2016,11,25,02,08,4.80
2016,11,25,02,09,4.80
2016,11,25,02,10,4.80
2016,11,25,02,11,4.80
2016,11,25,02,12,4.80
2016,11,25,02,13,4.80
2016,11,25,02,14,4.80
2016,11,25,02,15,4.80
2016,11,25,02,16,4.80
2016,11,25,02,17,4.80
2016,11,25,02,18,4.80
2016,11,25,02,19,4.80
2016,11,25,02,20,4.80
2016,11,25,02,21,4.80
2016,11,25,02,22,4.80
2016,11,25,02,23,4.80
2016,11,25,02,24,4.80
2016,11,25,02,25,4.80
2016,11,25,02,26,4.80
2016,11,25,02,27,4.80
2016,11,25,02,28,4.80
2016,11,25,02,29,4.80
2016,11,25,02,30,4.80
2016,11,25,02,31,4.80
2016,11,25,02,32,4.80
2016,11,25,02,33,4.80
2016,11,25,02,34,4.80
2016,11,25,02,35,4.80
2016,11,25,02,36,4.80
2016,11,25,02,37,4.70
2016,11,25,02,38,4.70
2016,11,25,02,39,4.70
2016,11,25,02,40,4.70
2016,11,25,02,41,4.70
2016,11,25,02,42,4.60
2016,11,25,02,43,4.60
2016,11,25,02,44,4.60
2016,11,25,02,45,4.50
2016,11,25,02,46,4.50
2016,11,25,02,47,4.50
2016,11,25,02,48,4.50
2016,11,25,02,49,4.40
2016,11,25,02,50,4.40
2016,11,25,02,51,4.40
2016,11,25,02,52,4.30
2016,11,25,02,53,4.30
2016,11,25,02,54,4.30
2016,11,25,02,55,4.30
2016,11,25,02,56,4.20
2016,11,25,02,57,4.20
2016,11,25,02,58,4.20
2016,11,25,02,59,4.20
2016,11,25,03,00,4.20
2016,11,25,03,01,4.20
2016,11,25,03,02,4.10
2016,11,25,03,03,4.10
2016,11,25,03,04,4.10
2016,11,25,03,05,4.10
2016,11,25,03,06,4.10
2016,11,25,03,07,4.10
2016,11,25,03,08,4.10
2016,11,25,03,09,4.10
2016,11,25,03,10,4.10
2016,11,25,03,11,4.10
2016,11,25,03,12,4.10
2016,11,25,03,13,4.10
2016,11,25,03,14,4.10
2016,11,25,03,15,4.10
2016,11,25,03,16,4.10
2016,11,25,03,17,4.10
2016,11,25,03,18,4.10
2016,11,25,03,19,4.10
2016,11,25,03,20,4.10
2016,11,25,03,21,4.00
2016,11,25,03,22,4.00
2016,11,25,03,23,4.00
2016,11,25,03,24,4.00
2016,11,25,03,25,4.00
2016,11,25,03,26,4.10
2016,11,25,03,27,4.00
2016,11,25,03,28,4.10
2016,11,25,03,29,4.10
2016,11,25,03,30,4.10
2016,11,25,03,31,4.10
2016,11,25,03,32,4.10
2016,11,25,03,33,4.10
2016,11,25,03,34,4.10
2016,11,25,03,35,4.10
2016,11,25,03,36,4.10
2016,11,25,03,37,4.10
2016,11,25,03,38,4.10
2016,11,25,03,39,4.10
2016,11,25,03,40,4.10
2016,11,25,03,41,4.10
2016,11,25,03,42,4.10
2016,11,25,03,43,4.10
2016,11,25,03,44,4.00
2016,11,25,03,45,4.10
2016,11,25,03,46,4.00
2016,11,25,03,47,4.10
2016,11,25,03,48,4.00
2016,11,25,03,49,4.00
2016,11,25,03,50,4.00
2016,11,25,03,51,4.00
2016,11,25,03,52,4.00
2016,11,25,03,53,3.90
2016,11,25,03,54,3.90
2016,11,25,03,55,3.90
2016,11,25,03,56,3.90
2016,11,25,03,57,3.90
2016,11,25,03,58,3.90
2016,11,25,03,59,3.90
2016,11,25,04,00,3.90
2016,11,25,04,01,3.90
2016,11,25,04,02,3.90
2016,11,25,04,03,3.90
2016,11,25,04,04,3.90
2016,11,25,04,05,3.90
2016,11,25,04,06,3.90
2016,11,25,04,07,3.90
2016,11,25,04,08,3.90
2016,11,25,04,09,3.90
2016,11,25,04,10,3.90
2016,11,25,04,11,3.90
2016,11,25,04,12,3.90
2016,11,25,04,13,3.80
2016,11,25,04,14,3.80
2016,11,25,04,15,3.80
2016,11,25,04,16,3.80
2016,11,25,04,17,3.80
2016,11,25,04,18,3.80
2016,11,25,04,19,3.80
2016,11,25,04,20,3.80
2016,11,25,04,21,3.80
2016,11,25,04,22,3.80
2016,11,25,04,23,3.80
2016,11,25,08,20,5.40
2016,11,25,08,21,5.40
2016,11,25,08,22,5.40
2016,11,25,08,23,5.40
2016,11,25,08,24,5.40
2016,11,25,08,25,5.40
2016,11,25,08,26,5.50
2016,11,25,08,27,5.50
2016,11,25,08,28,5.50
2016,11,25,08,29,5.50
2016,11,25,08,30,5.60
2016,11,25,08,31,5.60
2016,11,25,08,32,5.60
2016,11,25,08,33,5.60
2016,11,25,08,34,5.60
2016,11,25,08,35,5.60
2016,11,25,08,36,5.70
2016,11,25,08,37,5.70
2016,11,25,08,38,5.70
2016,11,25,08,39,5.70
2016,11,25,08,40,5.70
2016,11,25,08,41,5.80
2016,11,25,08,42,5.80
2016,11,25,08,43,5.80
2016,11,25,08,44,5.90
2016,11,25,08,45,5.90
2016,11,25,08,46,5.90
2016,11,25,08,47,5.90
2016,11,25,08,48,6.00
2016,11,25,08,49,6.00
2016,11,25,08,50,6.10
2016,11,25,08,51,6.10
2016,11,25,08,52,6.10
2016,11,25,08,53,6.10
2016,11,25,08,54,6.10
2016,11,25,08,55,6.20
2016,11,25,08,56,6.20
2016,11,25,08,57,6.20
2016,11,25,08,58,6.20
2016,11,25,08,59,6.20
2016,11,25,09,00,6.20
2016,11,25,09,01,6.30
2016,11,25,09,02,6.30
2016,11,25,09,03,6.30
2016,11,25,09,04,6.30
2016,11,25,09,05,6.40
2016,11,25,09,06,6.40
2016,11,25,09,07,6.40
2016,11,25,09,08,6.40
2016,11,25,09,09,6.40
2016,11,25,09,10,6.50
2016,11,25,09,11,6.50
2016,11,25,09,12,6.50
2016,11,25,09,13,6.50
2016,11,25,09,14,6.60
2016,11,25,09,15,6.60
2016,11,25,09,16,6.60
2016,11,25,09,17,6.60
2016,11,25,09,18,6.70
2016,11,25,09,19,6.70
2016,11,25,09,20,6.70
2016,11,25,09,21,6.70
2016,11,25,09,22,6.70
2016,11,25,09,23,6.80
2016,11,25,09,24,6.80
2016,11,25,09,25,6.80
2016,11,25,09,26,6.90
2016,11,25,09,27,6.90
2016,11,25,09,28,6.90
2016,11,25,09,29,6.90
2016,11,25,09,30,6.90
2016,11,25,09,31,6.90
2016,11,25,09,32,7.00
2016,11,25,09,33,7.00
2016,11,25,09,34,6.90
2016,11,25,09,35,6.90
2016,11,25,09,36,6.90
2016,11,25,09,37,6.90
2016,11,25,09,38,6.90
2016,11,25,09,39,6.90
2016,11,25,09,40,6.90
2016,11,25,09,41,6.90
2016,11,25,09,42,6.90
2016,11,25,09,43,6.90
2016,11,25,09,44,6.90
2016,11,25,09,45,6.90
2016,11,25,09,46,6.90
2016,11,25,09,47,6.90
2016,11,25,09,48,6.90
2016,11,25,09,49,6.90
2016,11,25,09,50,6.90
2016,11,25,09,51,6.90
2016,11,25,09,52,6.90
2016,11,25,09,53,6.90
2016,11,25,09,54,6.90
2016,11,25,09,55,6.90
2016,11,25,09,56,6.90
2016,11,25,09,57,6.80
2016,11,25,09,58,6.80
2016,11,25,09,59,6.80
2016,11,25,10,00,6.80
2016,11,25,10,01,6.80
2016,11,25,10,02,6.80
2016,11,25,10,03,6.80
2016,11,25,10,04,6.80
2016,11,25,10,05,6.80
2016,11,25,10,06,6.80
2016,11,25,10,07,6.70
2016,11,25,10,08,6.70
2016,11,25,10,09,6.70
2016,11,25,10,10,6.70
2016,11,25,10,11,6.70
2016,11,25,10,12,6.70
2016,11,25,10,13,6.70
2016,11,25,10,14,6.70
2016,11,25,10,15,6.80
2016,11,25,10,16,6.80
2016,11,25,10,17,6.80
2016,11,25,10,18,6.80
2016,11,25,10,19,6.80
2016,11,25,10,20,6.80
2016,11,25,10,21,6.90
2016,11,25,10,22,6.90
2016,11,25,10,23,6.90
2016,11,25,10,24,6.90
2016,11,25,10,25,7.00
2016,11,25,10,26,7.00
2016,11,25,10,27,7.00
2016,11,25,10,28,7.00
2016,11,25,10,29,7.00
2016,11,25,10,30,7.10
2016,11,25,10,31,7.10
2016,11,25,10,32,7.10
2016,11,25,10,33,7.10
2016,11,25,10,34,7.10
2016,11,25,10,35,7.10
2016,11,25,10,36,7.10
2016,11,25,10,37,7.10
2016,11,25,10,38,7.20
2016,11,25,10,39,7.20
2016,11,25,10,40,7.20
2016,11,25,10,41,7.20
2016,11,25,10,42,7.20
2016,11,25,10,43,7.20
2016,11,25,10,44,7.10
2016,11,25,10,45,7.10
2016,11,25,10,46,7.10
2016,11,25,10,47,7.10
2016,11,25,10,48,7.10
2016,11,25,10,49,7.10
2016,11,25,10,50,7.20
2016,11,25,10,51,7.20
2016,11,25,10,52,7.20
2016,11,25,10,53,7.20
2016,11,25,10,54,7.20
2016,11,25,10,55,7.20
2016,11,25,10,56,7.20
2016,11,25,10,57,7.20
2016,11,25,10,58,7.20
2016,11,25,10,59,7.20
2016,11,25,11,00,7.20
2016,11,25,11,01,7.20
2016,11,25,11,02,7.20
2016,11,25,11,03,7.30
2016,11,25,11,04,7.30
2016,11,25,11,05,7.30
2016,11,25,11,06,7.30
2016,11,25,11,07,7.30
2016,11,25,11,08,7.30
2016,11,25,11,09,7.40
2016,11,25,11,10,7.40
2016,11,25,11,11,7.40
2016,11,25,11,12,7.40
2016,11,25,11,13,7.40
2016,11,25,11,14,7.40
2016,11,25,11,15,7.50
2016,11,25,11,16,7.50
2016,11,25,11,17,7.50
2016,11,25,11,18,7.50
2016,11,25,11,19,7.50
2016,11,25,11,20,7.50
2016,11,25,11,21,7.50
2016,11,25,11,22,7.50
2016,11,25,11,23,7.60
2016,11,25,11,24,7.60
2016,11,25,11,25,7.50
2016,11,25,11,26,7.60
2016,11,25,11,27,7.60
2016,11,25,11,28,7.60
2016,11,25,11,29,7.60
2016,11,25,11,30,7.60
2016,11,25,11,31,7.60
2016,11,25,11,32,7.60
2016,11,25,11,33,7.50
2016,11,25,11,34,7.60
2016,11,25,11,35,7.60
2016,11,25,11,36,7.60
2016,11,25,11,37,7.60
2016,11,25,11,38,7.60
2016,11,25,11,39,7.60
2016,11,25,11,40,7.60
2016,11,25,11,41,7.60
2016,11,25,11,42,7.60
2016,11,25,11,43,7.60
2016,11,25,11,44,7.60
2016,11,25,11,45,7.60
2016,11,25,11,46,7.60
2016,11,25,11,47,7.60
2016,11,25,11,48,7.70
2016,11,25,11,49,7.70
2016,11,25,11,50,7.70
2016,11,25,11,51,7.70
2016,11,25,11,52,7.70
2016,11,25,11,53,7.70
2016,11,25,11,54,7.70
2016,11,25,11,55,7.70
2016,11,25,11,56,7.80
2016,11,25,11,57,7.80
2016,11,25,11,58,7.80
2016,11,25,11,59,7.80
2016,11,25,12,00,7.80
2016,11,25,12,01,7.80
2016,11,25,12,02,7.80
2016,11,25,12,03,7.90
2016,11,25,12,04,7.90
2016,11,25,12,05,7.90
2016,11,25,12,06,7.90
2016,11,25,12,07,7.90
2016,11,25,12,08,7.90
2016,11,25,12,09,7.80
2016,11,25,12,10,7.80
2016,11,25,12,11,7.80
2016,11,25,12,12,7.80
2016,11,25,12,13,7.80
2016,11,25,12,14,7.80
2016,11,25,12,15,7.80
2016,11,25,12,16,7.80
2016,11,25,12,17,7.80
2016,11,25,12,18,7.80
2016,11,25,12,19,7.80
2016,11,25,12,20,7.80
2016,11,25,12,21,7.90
2016,11,25,12,22,7.90
2016,11,25,12,23,7.90
2016,11,25,12,24,7.90
2016,11,25,12,25,7.90
2016,11,25,12,26,7.90
2016,11,25,12,27,7.90
2016,11,25,12,28,7.90
2016,11,25,12,29,7.90
2016,11,25,12,30,7.90
2016,11,25,12,31,7.90
2016,11,25,12,32,7.90
2016,11,25,12,33,7.90
2016,11,25,12,34,7.90
2016,11,25,12,35,7.90
2016,11,25,12,36,7.90
2016,11,25,12,37,7.80
2016,11,25,12,38,7.80
2016,11,25,12,39,7.80
2016,11,25,12,40,7.80
2016,11,25,12,41,7.80
2016,11,25,12,42,7.80
2016,11,25,12,43,7.90
2016,11,25,12,44,7.80
2016,11,25,12,45,7.90
2016,11,25,12,46,7.90
2016,11,25,12,47,7.90
2016,11,25,12,48,7.90
2016,11,25,12,49,7.90
2016,11,25,12,50,7.90
2016,11,25,12,51,7.90
2016,11,25,12,52,7.90
2016,11,25,12,53,7.90
2016,11,25,12,54,7.90
2016,11,25,12,55,7.90
2016,11,25,12,56,7.90
2016,11,25,12,57,7.90
2016,11,25,12,58,7.90
2016,11,25,12,59,7.90
2016,11,25,13,00,7.90
2016,11,25,13,01,7.90
2016,11,25,13,02,7.90
2016,11,25,13,03,7.90
2016,11,25,13,04,7.90
2016,11,25,13,05,7.90
2016,11,25,13,06,7.90
2016,11,25,13,07,7.90
2016,11,25,13,08,7.90
2016,11,25,13,09,7.90
2016,11,25,13,10,7.90
2016,11,25,13,11,8.00
2016,11,25,13,12,8.00
2016,11,25,13,13,8.00
2016,11,25,13,14,8.00
2016,11,25,13,15,8.00
2016,11,25,13,16,8.00
2016,11,25,13,17,8.00
2016,11,25,13,18,8.00
2016,11,25,13,19,8.00
2016,11,25,13,20,8.10
2016,11,25,13,21,8.10
2016,11,25,13,22,8.10
2016,11,25,13,23,8.10
2016,11,25,13,24,8.10
2016,11,25,13,25,8.10
2016,11,25,13,26,8.10
2016,11,25,13,27,8.00
2016,11,25,13,28,8.10
2016,11,25,13,29,8.10
2016,11,25,13,30,8.10
2016,11,25,13,31,8.10
2016,11,25,13,32,8.10
2016,11,25,13,33,8.10
2016,11,25,13,34,8.10
2016,11,25,13,35,8.10
2016,11,25,13,36,8.10
2016,11,25,13,37,8.10
2016,11,25,13,38,8.10
2016,11,25,13,39,8.20
2016,11,25,13,40,8.20
2016,11,25,13,41,8.20
2016,11,25,13,42,8.20
2016,11,25,13,43,8.20
2016,11,25,13,44,8.20
2016,11,25,13,45,8.20
2016,11,25,13,46,8.20
2016,11,25,13,47,8.20
2016,11,25,13,48,8.20
2016,11,25,13,49,8.20
2016,11,25,13,50,8.20
2016,11,25,13,51,8.20
2016,11,25,13,52,8.20
2016,11,25,13,53,8.30
2016,11,25,13,54,8.30
2016,11,25,13,55,8.30
2016,11,25,13,56,8.30
2016,11,25,13,57,8.30
2016,11,25,13,58,8.30
2016,11,25,13,59,8.30
2016,11,25,14,00,8.30
2016,11,25,14,01,8.30
2016,11,25,14,02,8.30
2016,11,25,14,03,8.30
2016,11,25,14,04,8.40
2016,11,25,14,05,8.40
2016,11,25,14,06,8.40
2016,11,25,14,07,8.40
2016,11,25,14,08,8.50
2016,11,25,14,09,8.50
2016,11,25,14,10,8.50
2016,11,25,14,11,8.50
2016,11,25,14,12,8.50
2016,11,25,14,13,8.50
2016,11,25,14,14,8.60
2016,11,25,14,15,8.60
2016,11,25,14,16,8.60
2016,11,25,14,17,8.60
2016,11,25,14,18,8.60
2016,11,25,14,19,8.60
2016,11,25,14,20,8.60
2016,11,25,14,21,8.70
2016,11,25,14,22,8.70
2016,11,25,14,23,8.70
2016,11,25,14,24,8.70
2016,11,25,14,25,8.70
2016,11,25,14,26,8.70
2016,11,25,14,27,8.70
2016,11,25,14,28,8.70
2016,11,25,14,29,8.70
2016,11,25,14,30,8.70
2016,11,25,14,31,8.70
2016,11,25,14,32,8.70
2016,11,25,14,33,8.70
2016,11,25,14,34,8.70
2016,11,25,14,35,8.70
2016,11,25,14,36,8.70
2016,11,25,14,37,8.70
2016,11,25,14,38,8.70
2016,11,25,14,39,8.80
2016,11,25,14,40,8.80
2016,11,25,14,41,8.80
2016,11,25,14,42,8.80
2016,11,25,14,43,8.80
2016,11,25,14,44,8.80
2016,11,25,14,45,8.80
2016,11,25,14,46,8.80
2016,11,25,14,47,8.80
2016,11,25,14,48,8.80
2016,11,25,14,49,8.80
2016,11,25,14,50,8.80
2016,11,25,14,51,8.80
2016,11,25,14,52,8.80
2016,11,25,14,53,8.80
2016,11,25,14,54,8.80
2016,11,25,14,55,8.80
2016,11,25,14,56,8.80
2016,11,25,14,57,8.70
2016,11,25,14,58,8.80
2016,11,25,14,59,8.80
2016,11,25,15,00,8.80
2016,11,25,15,01,8.80
2016,11,25,15,02,8.80
2016,11,25,15,03,8.80
2016,11,25,15,04,8.80
2016,11,25,15,05,8.80
2016,11,25,15,06,8.80
2016,11,25,15,07,8.80
2016,11,25,15,08,8.80
2016,11,25,15,09,8.80
2016,11,25,15,10,8.80
2016,11,25,15,11,8.80
2016,11,25,15,12,8.80
2016,11,25,15,13,8.80
2016,11,25,15,14,8.80
2016,11,25,15,15,8.80
2016,11,25,15,16,8.80
2016,11,25,15,17,8.80
2016,11,25,15,18,8.80
2016,11,25,15,19,8.80
2016,11,25,15,20,8.80
2016,11,25,15,21,8.80
2016,11,25,15,22,8.80
2016,11,25,15,23,8.90
2016,11,25,15,24,8.90
2016,11,25,15,25,8.90
2016,11,25,15,26,8.90
2016,11,25,15,27,8.90
2016,11,25,15,28,8.90
2016,11,25,15,29,8.90
2016,11,25,15,30,8.90
2016,11,25,15,31,8.90
2016,11,25,15,32,8.90
2016,11,25,15,33,8.90
2016,11,25,15,34,8.90
2016,11,25,15,35,8.90
2016,11,25,15,36,8.90
2016,11,25,15,37,8.90
2016,11,25,15,38,8.90
2016,11,25,15,39,8.90
2016,11,25,15,40,8.90
2016,11,25,15,41,8.90
2016,11,25,15,42,8.80
2016,11,25,15,43,8.80
2016,11,25,15,44,8.80
2016,11,25,15,45,8.80
2016,11,25,15,46,8.80
2016,11,25,15,47,8.80
2016,11,25,15,48,8.80
2016,11,25,15,49,8.80
2016,11,25,15,50,8.80
2016,11,25,15,51,8.80
2016,11,25,15,52,8.80
2016,11,25,15,53,8.80
2016,11,25,15,54,8.80
2016,11,25,15,55,8.80
2016,11,25,15,56,8.70
2016,11,25,15,57,8.80
2016,11,25,15,58,8.70
2016,11,25,15,59,8.70
2016,11,25,16,00,8.70
2016,11,25,16,01,8.70
2016,11,25,16,02,8.70
2016,11,25,16,03,8.70
2016,11,25,16,04,8.70
2016,11,25,16,05,8.70
2016,11,25,16,06,8.70
2016,11,25,16,07,8.70
2016,11,25,16,08,8.70
2016,11,25,16,09,8.80
2016,11,25,16,10,8.80
2016,11,25,16,11,8.80
2016,11,25,16,12,8.80
2016,11,25,16,13,8.80
2016,11,25,16,14,8.80
2016,11,25,16,15,8.80
2016,11,25,16,16,8.80
2016,11,25,16,17,8.80
2016,11,25,16,18,8.80
2016,11,25,16,19,8.80
2016,11,25,16,20,8.80
2016,11,25,16,21,8.80
2016,11,25,16,22,8.80
2016,11,25,16,23,8.80
2016,11,25,16,24,8.80
2016,11,25,16,25,8.80
2016,11,25,16,26,8.80
2016,11,25,16,27,8.80
2016,11,25,16,28,8.80
2016,11,25,16,29,8.70
2016,11,25,16,30,8.70
2016,11,25,16,31,8.70
2016,11,25,16,32,8.70
2016,11,25,16,33,8.70
2016,11,25,16,34,8.70
2016,11,25,16,35,8.60
2016,11,25,16,36,8.60
2016,11,25,16,37,8.60
2016,11,25,16,38,8.60
2016,11,25,16,39,8.60
2016,11,25,16,40,8.60
2016,11,25,16,41,8.60
2016,11,25,16,42,8.60
2016,11,25,16,43,8.60
2016,11,25,16,44,8.60
2016,11,25,16,45,8.60
2016,11,25,16,46,8.60
2016,11,25,16,47,8.60
2016,11,25,16,48,8.60
2016,11,25,16,49,8.60
2016,11,25,16,50,8.60
2016,11,25,16,51,8.60
2016,11,25,16,52,8.60
2016,11,25,16,53,8.50
2016,11,25,16,54,8.50
2016,11,25,16,55,8.50
2016,11,25,16,56,8.40
2016,11,25,16,57,8.40
2016,11,25,16,58,8.40
2016,11,25,16,59,8.40
2016,11,25,17,00,8.40
2016,11,25,17,01,8.40
2016,11,25,17,02,8.40
2016,11,25,17,03,8.40
2016,11,25,17,04,8.40
2016,11,25,17,05,8.30
2016,11,25,17,06,8.30
2016,11,25,17,07,8.30
2016,11,25,17,08,8.30
2016,11,25,17,09,8.30
2016,11,25,17,10,8.30
2016,11,25,17,11,8.30
2016,11,25,17,12,8.30
2016,11,25,17,13,8.30
2016,11,25,17,14,8.30
2016,11,25,17,15,8.30
2016,11,25,17,16,8.30
2016,11,25,17,17,8.30
2016,11,25,17,18,8.30
2016,11,25,17,19,8.30
2016,11,25,17,20,8.30
2016,11,25,17,21,8.30
2016,11,25,17,22,8.30
2016,11,25,17,23,8.20
2016,11,25,17,24,8.20
2016,11,25,17,25,8.20
2016,11,25,17,26,8.20
2016,11,25,17,27,8.20
2016,11,25,17,28,8.20
2016,11,25,17,29,8.20
2016,11,25,17,30,8.20
2016,11,25,17,31,8.20
2016,11,25,17,32,8.20
2016,11,25,17,33,8.20
2016,11,25,17,34,8.20
2016,11,25,17,35,8.20
2016,11,25,17,36,8.20
2016,11,25,17,37,8.20
2016,11,25,17,38,8.20
2016,11,25,17,39,8.20
2016,11,25,17,40,8.20
2016,11,25,17,41,8.20
2016,11,25,17,42,8.20
2016,11,25,17,43,8.20
2016,11,25,17,44,8.20
2016,11,25,17,45,8.20
2016,11,25,17,46,8.20
2016,11,25,17,47,8.20
2016,11,25,17,48,8.20
2016,11,25,17,49,8.20
2016,11,25,17,50,8.20
2016,11,25,17,51,8.20
2016,11,25,17,52,8.20
2016,11,25,17,53,8.20
2016,11,25,17,54,8.20
2016,11,25,17,55,8.20
2016,11,25,17,56,8.20
2016,11,25,17,57,8.20
2016,11,25,17,58,8.20
2016,11,25,17,59,8.20
2016,11,25,18,00,8.20
2016,11,25,18,01,8.20
2016,11,25,18,02,8.20
2016,11,25,18,03,8.20
2016,11,25,18,04,8.20
2016,11,25,18,05,8.20
2016,11,25,18,06,8.20
2016,11,25,18,07,8.20
2016,11,25,18,08,8.20
2016,11,25,18,09,8.20
2016,11,25,18,10,8.20
2016,11,25,18,11,8.20
2016,11,25,18,12,8.20
2016,11,25,18,13,8.20
2016,11,25,18,14,8.20
2016,11,25,18,15,8.20
2016,11,25,18,16,8.20
2016,11,25,18,17,8.20
2016,11,25,18,18,8.20
2016,11,25,18,19,8.20
2016,11,25,18,20,8.20
2016,11,25,18,21,8.20
2016,11,25,18,22,8.20
2016,11,25,18,23,8.20
2016,11,25,18,24,8.20
2016,11,25,18,25,8.20
2016,11,25,18,26,8.20
2016,11,25,18,27,8.20
2016,11,25,18,28,8.20
2016,11,25,18,29,8.20
2016,11,25,18,30,8.20
2016,11,25,18,31,8.10
2016,11,25,18,32,8.10
2016,11,25,18,33,8.10
2016,11,25,18,34,8.10
2016,11,25,18,35,8.10
2016,11,25,18,36,8.10
2016,11,25,18,37,8.10
2016,11,25,18,38,8.10
2016,11,25,18,39,8.10
2016,11,25,18,40,8.10
2016,11,25,18,41,8.10
2016,11,25,18,42,8.10
2016,11,25,18,43,8.10
2016,11,25,18,44,8.10
2016,11,25,18,45,8.10
2016,11,25,18,46,8.10
2016,11,25,18,47,8.10
2016,11,25,18,48,8.10
2016,11,25,18,49,8.10
2016,11,25,18,50,8.10
2016,11,25,18,51,8.10
2016,11,25,18,52,8.10
2016,11,25,18,53,8.10
2016,11,25,18,54,8.10
2016,11,25,18,55,8.10
2016,11,25,18,56,8.10
2016,11,25,18,57,8.10
2016,11,25,18,58,8.10
2016,11,25,18,59,8.10
2016,11,25,19,00,8.10
2016,11,25,19,01,8.10
2016,11,25,19,02,8.10
2016,11,25,19,03,8.10
2016,11,25,19,04,8.10
2016,11,25,19,05,8.10
2016,11,25,19,06,8.10
2016,11,25,19,07,8.10
2016,11,25,19,08,8.10
2016,11,25,19,09,8.10
2016,11,25,19,10,8.10
2016,11,25,19,11,8.10
2016,11,25,19,12,8.10
2016,11,25,19,13,8.10
2016,11,25,19,14,8.10
2016,11,25,19,15,8.10
2016,11,25,19,16,8.10
2016,11,25,19,17,8.10
2016,11,25,19,18,8.10
2016,11,25,19,19,8.10
2016,11,25,19,20,8.10
2016,11,25,19,21,8.10
2016,11,25,19,22,8.10
2016,11,25,19,23,8.10
2016,11,25,19,24,8.10
2016,11,25,19,25,8.10
2016,11,25,19,26,8.10
2016,11,25,19,27,8.10
2016,11,25,19,28,8.10
2016,11,25,19,29,8.00
2016,11,25,19,30,8.00
2016,11,25,19,31,8.00
2016,11,25,19,32,8.00
2016,11,25,19,33,8.00
2016,11,25,19,34,8.00
2016,11,25,19,35,8.00
2016,11,25,19,36,7.90
2016,11,25,19,37,7.90
2016,11,25,19,38,7.90
2016,11,25,19,39,7.90
2016,11,25,19,40,7.90
2016,11,25,19,41,7.90
2016,11,25,19,42,7.90
2016,11,25,19,43,7.90
2016,11,25,19,44,7.90
2016,11,25,19,45,7.90
2016,11,25,19,46,7.90
2016,11,25,19,47,7.90
2016,11,25,19,48,7.90
2016,11,25,19,49,7.90
2016,11,25,19,50,7.90
2016,11,25,19,51,7.90
2016,11,25,19,52,7.90
2016,11,25,19,53,7.90
2016,11,25,19,54,7.90
2016,11,25,19,55,7.90
2016,11,25,19,56,7.90
2016,11,25,19,57,7.90
2016,11,25,19,58,7.90
2016,11,25,19,59,7.90
2016,11,25,20,00,7.90
2016,11,25,20,01,7.90
2016,11,25,20,02,7.90
2016,11,25,20,03,7.90
2016,11,25,20,04,7.90
2016,11,25,20,05,7.90
2016,11,25,20,06,7.90
2016,11,25,20,07,7.90
2016,11,25,20,08,7.90
2016,11,25,20,09,7.90
2016,11,25,20,10,7.90
2016,11,25,20,11,7.90
2016,11,25,20,12,7.90
2016,11,25,20,13,7.90
2016,11,25,20,14,7.90
2016,11,25,20,15,7.90
2016,11,25,20,16,7.90
2016,11,25,20,17,7.90
2016,11,25,20,18,7.90
2016,11,25,20,19,7.90
2016,11,25,20,20,7.90
2016,11,25,20,21,7.90
2016,11,25,20,22,7.90
2016,11,25,20,23,7.90
2016,11,25,20,24,7.90
2016,11,25,20,25,7.90
2016,11,25,20,26,7.90
2016,11,25,20,27,7.90
2016,11,25,20,28,7.90
2016,11,25,20,29,7.90
2016,11,25,20,30,7.90
2016,11,25,20,31,7.90
2016,11,25,20,32,7.90
2016,11,25,20,33,7.90
2016,11,25,20,34,7.90
2016,11,25,20,35,7.90
2016,11,25,20,36,7.90
2016,11,25,20,37,7.90
2016,11,25,20,38,7.90
2016,11,25,20,39,7.90
2016,11,25,20,40,7.80
2016,11,25,20,41,7.80
2016,11,25,20,42,7.80
2016,11,25,20,43,7.80
2016,11,25,20,44,7.80
2016,11,25,20,45,7.80
2016,11,25,20,46,7.80
2016,11,25,20,47,7.80
2016,11,25,20,48,7.80
2016,11,25,20,49,7.80
2016,11,25,20,50,7.80
2016,11,25,20,51,7.80
2016,11,25,20,52,7.80
2016,11,25,20,53,7.80
2016,11,25,20,54,7.80
2016,11,25,20,55,7.80
2016,11,25,20,56,7.80
2016,11,25,20,57,7.80
2016,11,25,20,58,7.70
2016,11,25,20,59,7.70
2016,11,25,21,00,7.70
2016,11,25,21,01,7.70
2016,11,25,21,02,7.70
2016,11,25,21,03,7.70
2016,11,25,21,04,7.70
2016,11,25,21,05,7.70
2016,11,25,21,06,7.70
2016,11,25,21,07,7.70
2016,11,25,21,08,7.70
2016,11,25,21,09,7.70
2016,11,25,21,10,7.70
2016,11,25,21,11,7.70
2016,11,25,21,12,7.70
2016,11,25,21,13,7.70
2016,11,25,21,14,7.70
2016,11,25,21,15,7.60
2016,11,25,21,16,7.60
2016,11,25,21,17,7.60
2016,11,25,21,18,7.60
2016,11,25,21,19,7.60
2016,11,25,21,20,7.60
2016,11,25,21,21,7.60
2016,11,25,21,22,7.60
2016,11,25,21,23,7.60
2016,11,25,21,24,7.60
2016,11,25,21,25,7.60
2016,11,25,21,26,7.60
2016,11,25,21,27,7.60
2016,11,25,21,28,7.60
2016,11,25,21,29,7.60
2016,11,25,21,30,7.60
2016,11,25,21,31,7.60
2016,11,25,21,32,7.60
2016,11,25,21,33,7.60
2016,11,25,21,34,7.60
2016,11,25,21,35,7.60
2016,11,25,21,36,7.60
2016,11,25,21,37,7.60
2016,11,25,21,38,7.60
2016,11,25,21,39,7.60
2016,11,25,21,40,7.60
2016,11,25,21,41,7.60
2016,11,25,21,42,7.60
2016,11,25,21,43,7.60
2016,11,25,21,44,7.60
2016,11,25,21,45,7.60
2016,11,25,21,46,7.60
2016,11,25,21,47,7.60
2016,11,25,21,48,7.60
2016,11,25,21,49,7.60
2016,11,25,21,50,7.60
2016,11,25,21,51,7.60
2016,11,25,21,52,7.60
2016,11,25,21,53,7.60
2016,11,25,21,54,7.60
2016,11,25,21,55,7.60
2016,11,25,21,56,7.60
2016,11,25,21,57,7.60
2016,11,25,21,58,7.60
2016,11,25,21,59,7.60
2016,11,25,22,00,7.60
2016,11,25,22,01,7.60
2016,11,25,22,02,7.50